Temperature
14 14 14 14 13 13 13 13 14 15 15 14 14 14 14 14 15 15 15 15 15 15 15 15 16 16 16 16 16 16 16 15 15 15 14 14 14 13
13 13 13 13 13 13 13 13 13 13 14 14 14 14 14 14 14 15 15 15 15 15 15 15 15 16 16 16 16 16 16 15 15 15 14 14 13 13
13 13 13 13 13 13 13 13 13 13 13 14 14 13 14 14 14 14 14 14 14 14 14 15 15 15 15 16 16 16 15 15 15 14 14 14 13 12
12 12 12 12 12 12 12 12 13 13 13 13 13 13 13 13 14 14 14 14 14 14 14 14 14 15 15 15 15 15 15 15 14 14 14 13 13 12
11 11 11 11 11 12 12 12 12 13 13 13 13 13 13 13 13 13 13 13 13 13 14 14 14 14 14 14 15 15 14 14 14 14 14 13 12 12
11 11 11 11 11 11 11 11 12 12 13 13 13 12 12 12 12 13 13 13 13 13 13 13 13 13 14 14 14 14 14 14 14 13 13 13 12 12
11 11 11 11 11 11 11 11 12 12 13 13 12 12 12 12 12 12 12 13 13 12 12 12 12 13 13 13 13 13 13 13 13 13 13 12 12 12
10 11 11 11 11 11 11 11 11 11 11 12 12 11 11 11 11 11 12 12 12 12 12 12 12 12 12 12 12 12 12 12 12 12 12 12 12 12
10 10 11 10 11 10 11 11 11 11 11 11 11 11 11 11 11 11 11 11 11 11 11 11 11 11 11 12 12 12 12 12 12 11 11 11 12 12
10 10 10 10 10 10 10 10 10 10 10 10 11 11 11 11 11 11 11 11 11 11 11 11 11 11 11 11 11 11 11 11 11 11 11 11 12 12
10 10 10 10 10 10 10 10 10 10 10 10 10 10 10 11 11 11 11 12 11 11 11 10 10 11 11 11 11 11 11 11 11 11 11 11 11 11
9 9 9 9 9 9 9 9 9 9 10 10 10 10 10 10 10 10 11 11 11 11 10 10 10 10 10 10 10 11 11 11 11 11 11 11 11 11
10 10 9 9 9 9 9 9 9 9 10 10 10 10 10 10 10 9 9 10 10 10 10 10 10 10 10 10 10 10 10 10 11 11 11 11 12 12
9 9 9 9 8 8 8 8 9 9 10 10 10 10 10 9 9 9 9 9 9 9 10 10 10 10 10 10 10 10 10 10 10 10 10 11 11 11
8 9 8 8 8 8 8 8 8 9 9 9 9 9 9 8 9 9 9 9 9 9 9 9 10 10 10 10 10 10 10 10 10 10 10 10 10 11
8 8 8 8 8 8 8 8 8 8 8 8 8 8 8 8 8 8 9 9 9 9 9 9 9 9 9 10 10 10 10 9 9 9 10 10 10 10
8 9 9 9 9 9 9 8 8 8 8 8 8 8 8 8 8 8 8 8 9 9 8 8 8 8 9 9 9 9 9 9 9 9 9 9 9 9
9 10 10 9 9 9 9 9 8 7 7 7 7 7 7 7 7 7 7 7 8 8 7 7 8 8 8 8 8 8 8 8 9 9 9 9 8 8
9 10 10 9 9 9 9 8 8 7 6 7 7 6 6 7 7 7 7 7 7 7 7 7 7 7 7 7 7 7 7 7 8 8 8 8 8 8
9 10 9 9 9 9 8 8 8 7 7 7 6 6 6 6 6 6 6 6 6 6 7 6 6 6 6 6 6 6 7 7 7 7 7 8 8 8
10 10 10 9 9 9 8 8 7 7 6 6 6 6 6 6 6 6 6 5 6 6 6 6 5 5 6 6 6 6 6 6 6 6 7 7 7 7
10 10 10 9 9 9 8 8 8 7 7 7 6 6 6 6 6 6 6 6 6 6 6 6 6 6 6 6 6 5 5 5 5 6 6 6 6 7
10 10 10 9 9 8 8 8 7 7 7 6 6 6 6 5 5 6 5 5 5 5 6 6 6 6 6 6 6 5 5 5 5 5 5 5 6 6
Wind_Speed
1 2 3 3 4 4 4 5 5 6 5 3 4 4 5 6 5 6 6 3 5 6 7 9 11 13 15 17 18 20 20 21 25 31 35 36 36 35
2 4 4 4 4 4 4 4 4 5 6 5 5 6 7 6 5 6 5 3 5 5 6 7 10 12 14 15 16 17 19 20 24 30 34 35 35 34
4 5 6 6 6 5 5 4 4 4 6 7 5 6 6 6 5 4 4 4 4 4 5 7 9 10 11 12 12 15 17 20 25 31 34 35 34 32
6 6 6 6 7 7 6 6 5 5 6 8 7 5 5 6 6 4 3 4 3 2 3 6 7 8 9 8 8 12 16 21 26 31 34 34 33 31
7 7 7 8 8 8 8 8 7 6 5 5 6 5 5 7 7 5 4 4 4 4 3 3 5 6 6 4 5 10 16 21 25 29 31 31 30 29
9 9 9 9 9 8 7 8 8 7 6 6 6 7 7 9 8 7 6 4 4 3 1 2 3 3 3 1 4 9 15 20 24 27 28 28 28 26
9 9 10 9 8 8 8 9 9 9 8 8 9 9 10 10 9 8 8 7 3 2 2 1 1 1 1 2 4 9 13 18 21 23 24 25 24 23
9 8 8 9 6 6 7 8 10 9 10 10 10 10 11 10 9 8 8 7 4 4 3 1 1 1 1 1 6 9 11 15 16 18 19 20 20 20
8 8 8 9 10 8 4 5 8 7 7 9 11 11 12 11 10 10 8 7 5 6 3 2 2 1 1 3 10 10 11 12 13 13 14 15 16 17
8 8 8 9 10 10 6 7 8 9 9 9 9 9 10 10 10 8 6 3 4 5 5 4 4 2 2 2 8 9 10 10 10 11 12 13 14 15
6 7 8 8 11 13 7 6 6 5 4 3 2 4 5 7 11 10 10 7 6 6 5 3 3 2 2 2 3 6 8 10 11 12 13 14 14 14
4 5 10 10 11 13 8 8 8 7 7 5 2 3 5 7 9 12 11 10 8 6 6 4 3 2 2 2 2 2 4 8 12 14 15 16 16 14
2 4 6 9 10 10 9 8 7 8 6 6 6 7 7 8 10 10 10 9 9 7 7 6 4 3 2 1 1 1 1 2 5 7 13 16 18 16
2 4 6 6 7 8 7 9 11 10 6 6 7 8 8 9 9 9 8 8 7 7 8 8 5 4 2 1 0 1 2 2 2 4 5 11 15 18
4 6 3 1 3 3 5 7 8 7 7 7 7 8 8 9 9 8 7 5 4 5 8 9 8 6 4 2 1 1 0 1 1 1 1 2 3 5
4 6 5 4 2 2 0 3 5 7 7 7 8 7 8 8 8 9 9 8 7 5 6 8 8 8 5 4 4 3 3 2 2 1 1 1 1 1
4 5 4 3 3 4 4 5 6 7 7 7 7 8 8 8 8 8 8 8 8 8 8 8 8 5 5 5 4 4 4 3 3 2 1 1 2 2
3 4 4 3 4 5 5 5 6 7 7 7 7 8 8 8 8 8 8 9 8 8 9 9 9 7 3 4 7 6 4 3 3 2 1 1 1 1
4 4 4 3 3 4 4 5 6 6 6 7 7 7 8 8 8 8 8 9 8 8 8 8 9 9 9 7 4 6 6 5 4 3 2 1 1 1
6 4 4 3 2 2 3 4 4 5 6 6 6 7 7 7 7 8 7 9 9 8 8 8 9 9 9 8 7 5 5 6 5 4 3 3 1 1
7 5 4 3 2 1 0 1 3 3 4 5 5 6 6 7 7 8 7 5 7 7 8 8 8 8 7 6 6 5 4 3 4 4 4 3 2 2
7 7 6 5 4 3 3 3 3 2 3 4 4 5 5 6 6 7 7 7 7 8 8 8 8 7 7 7 7 7 6 4 1 2 1 2 2 3
8 8 7 7 7 6 5 5 5 4 3 4 4 4 5 6 6 6 7 7 7 8 9 8 8 7 7 7 7 7 8 7 5 4 2 1 3 5
Wind_Direction
324 349 344 352 346 347 339 334 326 322 327 345 337 343 328 313 308 290 275 224 230 245 257 267 271 272 269 262 249 237 227 217 203 192 185 183 184 184
25 24 7 0 357 350 345 335 320 313 310 320 315 318 323 317 312 296 285 214 231 243 265 278 282 282 279 267 249 232 218 207 191 182 179 178 179 182
58 53 43 26 12 5 1 350 343 323 307 314 320 322 321 327 326 306 288 269 238 224 273 290 293 293 287 273 246 223 206 193 181 175 173 172 175 180
68 61 48 42 30 21 7 8 2 345 323 320 325 333 332 336 328 304 278 265 261 208 270 296 308 307 296 276 238 207 190 179 171 169 168 170 175 180
73 64 51 41 31 27 16 12 4 1 350 336 346 352 346 348 339 325 288 267 258 221 235 282 321 326 316 281 214 185 173 167 163 163 164 168 173 178
72 61 49 40 27 15 19 17 10 6 16 17 20 17 11 2 356 346 331 301 270 252 266 348 341 341 359 3 166 164 160 157 157 158 161 165 171 177
79 70 60 51 40 23 22 16 14 14 22 28 30 27 20 10 3 349 337 326 308 301 276 277 300 327 32 99 127 143 147 150 153 156 160 166 173 179
77 68 69 52 61 78 56 42 28 26 24 21 32 26 19 10 359 358 355 355 352 346 308 285 312 315 8 105 126 138 145 148 150 155 163 170 178 185
68 51 44 42 21 33 82 126 73 50 15 15 33 21 15 8 355 5 17 18 7 350 339 354 6 346 16 100 136 141 143 147 153 161 170 180 189 196
64 50 44 39 23 1 26 51 54 49 35 35 33 26 22 2 351 354 3 34 46 26 14 19 12 10 16 86 146 156 159 162 170 180 189 197 204 210
67 51 35 38 15 351 13 31 36 41 104 103 353 318 313 346 356 2 3 9 29 37 24 25 6 359 19 52 122 173 184 191 197 205 211 215 217 222
95 89 63 35 14 2 19 27 25 15 7 19 14 344 3 24 17 13 5 4 11 25 21 11 15 19 24 40 76 156 196 209 215 219 222 221 217 225
78 72 62 34 23 12 10 29 356 321 338 358 6 10 12 16 16 17 12 8 9 14 8 0 6 20 23 30 108 172 211 203 207 221 224 222 214 214
63 68 74 43 36 29 30 4 328 318 352 4 5 4 3 5 3 3 7 7 7 11 9 0 356 359 346 335 107 179 200 207 224 235 226 208 213 220
77 66 56 276 238 112 54 336 335 1 3 1 2 360 357 359 348 348 350 350 344 10 16 7 359 353 351 356 3 11 174 156 186 233 245 220 209 210
137 145 188 235 198 90 192 355 26 24 359 1 358 354 351 354 359 357 351 347 348 6 18 13 6 356 0 21 28 30 30 25 28 26 31 45 35 12
161 166 159 138 100 66 55 39 22 18 8 6 360 356 355 355 356 358 350 346 354 358 2 4 1 360 25 17 24 34 34 32 30 27 16 61 74 65
246 144 121 94 66 49 35 36 37 24 6 4 6 360 356 353 353 355 356 356 357 358 0 360 355 344 327 54 22 10 16 6 354 352 359 17 59 106
211 144 126 100 77 61 44 34 31 33 6 5 9 2 357 355 357 356 3 359 354 353 357 2 3 357 351 351 24 19 359 348 340 333 335 319 298 100
206 169 160 142 110 57 40 29 21 20 14 6 11 2 358 358 1 357 8 5 349 351 355 4 7 356 343 336 330 344 6 350 344 342 337 325 304 267
204 197 197 194 202 194 31 356 2 8 9 345 5 358 354 356 360 354 358 5 338 354 354 0 3 324 318 327 330 347 9 25 0 345 342 330 304 271
215 215 217 223 229 236 243 268 293 309 314 318 354 345 347 348 350 351 353 351 353 354 348 351 354 344 351 351 352 356 357 358 335 266 350 10 338 332
221 227 226 225 226 226 236 242 258 278 289 308 325 331 337 339 335 341 344 345 348 348 342 348 353 353 355 354 356 1 1 357 348 337 325 267 283 281
Height
1490 1489 1488 1487 1485 1484 1482 1480 1479 1476 1474 1473 1472 1470 1469 1468 1467 1466 1466 1466 1467 1467 1467 1467 1467 1466 1465 1464 1463 1463 1464 1467 1470 1474 1479 1484 1490 1496
1488 1487 1486 1486 1484 1482 1481 1479 1478 1477 1474 1472 1470 1468 1466 1465 1464 1463 1462 1462 1462 1462 1462 1461 1461 1460 1458 1457 1456 1456 1458 1460 1464 1468 1473 1479 1485 1491
1487 1487 1486 1484 1483 1482 1480 1478 1477 1475 1473 1471 1469 1467 1464 1463 1461 1460 1459 1458 1458 1457 1457 1456 1455 1454 1453 1451 1450 1450 1452 1455 1458 1463 1468 1474 1480 1487
1487 1486 1486 1485 1482 1481 1479 1478 1476 1473 1471 1469 1467 1465 1463 1461 1459 1458 1456 1455 1454 1453 1453 1452 1451 1450 1448 1447 1446 1446 1447 1450 1454 1458 1464 1470 1476 1483
1487 1487 1486 1485 1483 1481 1479 1478 1475 1473 1470 1468 1466 1463 1462 1460 1458 1456 1454 1452 1451 1450 1450 1449 1448 1446 1445 1443 1442 1443 1444 1447 1450 1455 1460 1467 1473 1481
1488 1487 1486 1485 1483 1482 1481 1478 1476 1474 1471 1469 1466 1464 1461 1459 1457 1455 1452 1450 1449 1448 1447 1446 1445 1444 1442 1441 1441 1441 1442 1445 1448 1452 1458 1465 1472 1480
1489 1489 1487 1486 1484 1483 1481 1479 1477 1475 1473 1470 1468 1466 1463 1460 1457 1454 1452 1449 1447 1446 1445 1444 1443 1442 1442 1441 1441 1441 1442 1444 1448 1452 1458 1465 1472 1479
1491 1490 1490 1488 1486 1484 1482 1480 1478 1476 1474 1472 1470 1468 1465 1462 1459 1455 1452 1448 1446 1445 1443 1442 1442 1442 1441 1442 1442 1442 1444 1446 1450 1454 1460 1467 1473 1480
1492 1491 1491 1489 1487 1486 1484 1482 1480 1478 1476 1474 1473 1470 1468 1464 1461 1457 1454 1450 1447 1445 1443 1441 1441 1441 1441 1442 1443 1445 1446 1449 1453 1457 1463 1469 1475 1480
1492 1492 1491 1489 1487 1486 1485 1484 1482 1480 1478 1476 1474 1472 1469 1466 1463 1461 1457 1453 1450 1447 1444 1443 1441 1441 1442 1443 1445 1447 1450 1453 1456 1460 1465 1469 1474 1479
1493 1492 1491 1490 1488 1486 1486 1485 1483 1481 1479 1477 1475 1473 1470 1467 1465 1462 1459 1456 1453 1450 1447 1445 1444 1443 1443 1444 1446 1448 1452 1455 1458 1461 1465 1469 1473 1476
1493 1492 1491 1490 1488 1487 1486 1485 1483 1482 1481 1479 1476 1474 1472 1469 1466 1463 1461 1458 1455 1453 1451 1448 1447 1445 1445 1445 1446 1448 1451 1454 1456 1460 1463 1466 1469 1471
1494 1493 1491 1490 1488 1487 1486 1485 1483 1482 1481 1480 1478 1475 1473 1470 1468 1465 1462 1460 1458 1456 1454 1451 1449 1448 1447 1446 1446 1447 1449 1451 1453 1456 1458 1461 1464 1466
1493 1493 1491 1490 1489 1488 1487 1485 1484 1483 1482 1480 1478 1476 1473 1471 1468 1466 1463 1461 1459 1457 1454 1453 1451 1449 1448 1447 1447 1447 1448 1448 1449 1451 1453 1455 1457 1459
1492 1491 1490 1490 1489 1489 1487 1486 1485 1484 1482 1480 1478 1476 1474 1471 1469 1466 1464 1462 1459 1458 1455 1453 1452 1450 1449 1448 1448 1447 1447 1447 1448 1448 1449 1450 1451 1452
1491 1491 1490 1490 1490 1489 1488 1488 1486 1484 1482 1481 1479 1477 1474 1472 1470 1467 1465 1462 1461 1458 1456 1454 1452 1451 1450 1448 1448 1447 1447 1446 1446 1446 1446 1446 1447 1447
1491 1492 1492 1492 1492 1491 1490 1488 1487 1485 1483 1481 1479 1477 1475 1473 1470 1468 1466 1463 1461 1459 1457 1455 1453 1451 1450 1449 1448 1447 1446 1446 1445 1445 1445 1445 1445 1444
1491 1492 1492 1492 1492 1491 1490 1488 1487 1486 1484 1482 1480 1478 1476 1474 1471 1469 1467 1465 1462 1460 1458 1456 1454 1452 1450 1449 1449 1448 1447 1446 1445 1444 1444 1444 1443 1442
1491 1492 1492 1491 1491 1491 1490 1489 1488 1486 1484 1483 1481 1479 1477 1474 1472 1470 1468 1466 1464 1462 1459 1457 1455 1453 1451 1450 1448 1447 1446 1445 1444 1443 1442 1442 1442 1442
1490 1490 1491 1491 1491 1490 1489 1489 1488 1486 1485 1483 1481 1480 1478 1476 1474 1471 1469 1468 1465 1463 1461 1459 1456 1454 1453 1451 1449 1447 1445 1444 1443 1442 1441 1440 1440 1440
1488 1488 1489 1489 1489 1489 1488 1488 1487 1486 1484 1483 1482 1480 1478 1476 1474 1473 1470 1469 1466 1464 1462 1460 1457 1455 1452 1450 1449 1446 1444 1443 1442 1440 1440 1439 1438 1439
1485 1486 1486 1487 1487 1487 1486 1486 1485 1484 1483 1482 1481 1480 1478 1476 1475 1473 1471 1469 1467 1465 1463 1460 1458 1455 1453 1451 1448 1446 1444 1442 1441 1439 1438 1438 1437 1436
1482 1482 1483 1483 1483 1483 1483 1483 1483 1482 1481 1481 1480 1479 1477 1476 1474 1473 1471 1469 1468 1466 1463 1461 1459 1456 1454 1451 1449 1447 1445 1443 1441 1439 1438 1436 1436 1435